Weather in Novomykolaivka

Ukraine / Dnipropetrovsk Region     48°18′29″N   34°52′02″E
temp.,
°C
wind,
m/s
gust,
m/s
humid.,
%
clouds,
%
prec.,
mm/h
press.,
hPa
HPBL,
m
21 january, thu
thu2123:00−14sse35910 0.0 1028107
02:00−15se34910 0.0 102888
05:00−14se36890 0.0 1028100
08:00−12se47920 0.0 1028142
11:00−6sse599133 0.0 1028304
14:00−2s699265 0.0 1025431
17:00−1s5109599 0.0 1026308
20:00−1s5119599 0.0 1025303
22 january, fri
fri2223:00−3s5119683 0.0 1024268
02:00−1s4109789 0.0 1023239
05:00+1ssw5109781 0.0 1022301
08:00+2ssw6119890 0.0 1022344
11:00+3ssw613100100 0.0 1022389
14:00+4s61398100 0.0 1021455
17:00+3s61294100 0.1 1020319
20:00+3s6139483 0.1 1020316
23 january, sat
sat2323:00+3s6129597 0.0 1019317
02:00+3s6149198 0.0 1018402
05:00+3s71489100 0.0 1017391
08:00+4s71588100 0.0 1017401
11:00+5s71383100 0.0 1017404
14:00+6s6138199 0.0 1016505
17:00+5sse61385100 0.0 1015308
20:00+5sse71389100 0.0 1015317
24 january, sun
sun2423:00+4s7148999 0.0 1015340
02:00+4s61487100 0.0 1015326
05:00+4sse71487100 0.0 1014305
08:00+4sse81586100 0.0 1014315
11:00+7sse9167897 0.0 1013480
14:00+8sse9167295 0.0 1011721
17:00+6sse81585100 0.1 1010520
20:00+6sse81592100 1.4 1011556
25 january, mon
mon2523:00+6s71394100 0.0 1010507
02:00+7s71493100 0.1 1011500
05:00+5s6129560 0.0 1011335
08:00+6sse6129479 0.0 1011414
11:00+7sse6138399 0.0 1010443
14:00+10sse81571100 0.0 1008621
17:00+8sse91869100 0.0 1006739
20:00+7sse121978100 0.6 1004964